Location: K�ln
(50.9455°N, 6.9544°E)
Time: 20:19:39
(UTC+01:00)

ISS - Pass Details

Date: 15 November 2017
Orbit: 401 x 407 km, 51.6° (Epoch: 18 November)

Event Time Altitude Azimuth Distance (km) Brightness Sun altitude
Exits shadow 06:28:15 15° 243° (WSW) 1,178 -1.9 -12.5°
Maximum altitude 06:29:20 18° 218° (SW) 1,080 -1.9 -12.4°
Drops below altitude 10° 06:31:36 10° 174° (S) 1,449 -0.8 -12.0°
Sets 06:34:06 0° 154° (SSE) 2,304 0.7 -11.6°
